Spencer, IA

3:49 PM CST on February 14, 2016 (GMT -0600)
Spencer Municipal

Weather History for KSPW - October, 2012

Change the Weather History Date:

Wednesday, October 17, 2012

  Actual Average Record
Temperature  
Mean Temperature 54 °F -  
Max Temperature 63 °F 60 °F 80 °F (1971)
Min Temperature 44 °F 36 °F 14 °F (1976)
Degree Days  
Heating Degree Days 10    
Growing Degree Days 4 (Base 50)    
Moisture  
Dew Point 41 °F    
Average Humidity 62    
Maximum Humidity 83    
Minimum Humidity 46    
Precipitation  
Precipitation 0.01 in - - ()
Sea Level Pressure  
Sea Level Pressure 29.36 in    
Wind  
Wind Speed 20 mph (West)    
Max Wind Speed 34 mph    
Max Gust Speed 46 mph    
Visibility 10 miles    
Events Rain    
Averages and records for this station are not official NWS values.
T = Trace of Precipitation, MM = Missing Value Source: NWS Daily Summary

Daily Weather History Graph

Daily Weather History Graph

Search for Another Location

Airport or City:

Trip Planner

Search our weather history database for the weather conditions in past years. The results will help you decide how hot, cold, wet, or windy it might be!

Date:

Astronomy

Oct. 17, 2012 Rise Set
Actual Time 7:37 AM CDT 6:33 PM CDT
Civil Twilight 7:08 AM CDT 7:02 PM CDT
Nautical Twilight 6:35 AM CDT 7:35 PM CDT
Astronomical Twilight 6:02 AM CDT 8:08 PM CDT
Moon 10:17 AM CDT (10/17) 8:05 PM CDT (10/17)
Length of Visible Light 11h 53m
Length of Day
10h 56m
Waxing Crescent, 7% of the Moon is Illuminated
Oct 17
Waxing Crescent
Oct 21
First Quarter
Oct 29
Full
Nov 6
Last Quarter
Nov 13
New

Hourly Weather History & Observations

Time (CDT) Temp. Windchill Dew Point Humidity Pressure Visibility Wind Dir Wind Speed Gust Speed Precip Events Conditions
12:53 AM 51.1 °F - 41.0 °F 68% 29.35 in 10.0 mi SE 4.6 mph - N/A   Clear
1:53 AM 57.0 °F - 44.1 °F 62% 29.33 in 10.0 mi SSE 6.9 mph - N/A   Overcast
2:53 AM 60.1 °F - 45.0 °F 57% 29.29 in 10.0 mi SE 10.4 mph - 0.00 in   Overcast
3:53 AM 61.0 °F - 44.1 °F 54% 29.22 in 10.0 mi SSE 13.8 mph - N/A   Overcast
4:53 AM 62.1 °F - 45.0 °F 53% 29.21 in 10.0 mi South 16.1 mph - N/A   Overcast
5:53 AM 63.0 °F - 45.0 °F 52% 29.22 in 10.0 mi WSW 28.8 mph 35.7 mph N/A   Partly Cloudy
6:53 AM 59.0 °F - 48.9 °F 69% 29.27 in 10.0 mi West 26.5 mph 33.4 mph N/A   Clear
7:38 AM 59.0 °F - 50.0 °F 72% 29.28 in 10.0 mi West 26.5 mph 34.5 mph N/A   Mostly Cloudy
7:53 AM 59.0 °F - 50.0 °F 72% 29.26 in 10.0 mi West 26.5 mph 36.8 mph N/A   Mostly Cloudy
8:35 AM 55.4 °F - 50.0 °F 82% 29.30 in 10.0 mi WNW 23.0 mph 31.1 mph 0.01 in   Mostly Cloudy
8:53 AM 55.0 °F - 50.0 °F 83% 29.32 in 10.0 mi West 23.0 mph 26.5 mph 0.01 in   Partly Cloudy
9:53 AM 55.0 °F - 46.0 °F 72% 29.34 in 10.0 mi West 23.0 mph 31.1 mph N/A   Mostly Cloudy
10:25 AM 55.4 °F - 44.6 °F 67% 29.36 in 10.0 mi West 27.6 mph 35.7 mph N/A   Mostly Cloudy
10:49 AM 57.2 °F - 41.0 °F 55% 29.38 in 10.0 mi West 25.3 mph 34.5 mph N/A   Scattered Clouds
10:53 AM 57.0 °F - 39.9 °F 53% 29.38 in 10.0 mi West 28.8 mph 36.8 mph N/A   Scattered Clouds
11:53 AM 55.9 °F - 37.0 °F 49% 29.38 in 10.0 mi West 31.1 mph 35.7 mph N/A   Clear
12:53 PM 57.9 °F - 37.0 °F 46% 29.38 in 10.0 mi West 34.5 mph 41.4 mph N/A   Scattered Clouds
1:53 PM 55.9 °F - 37.0 °F 49% 29.37 in 10.0 mi West 31.1 mph 38.0 mph N/A   Overcast
2:53 PM 55.0 °F - 39.0 °F 55% 29.37 in 10.0 mi West 29.9 mph 40.3 mph N/A   Mostly Cloudy
3:53 PM 51.1 °F - 37.9 °F 61% 29.38 in 10.0 mi WNW 32.2 mph 42.6 mph N/A   Overcast
4:53 PM 51.1 °F - 37.0 °F 59% 29.40 in 10.0 mi WNW 32.2 mph 46.0 mph N/A   Overcast
5:45 PM 48.2 °F - 37.4 °F 66% 29.42 in 10.0 mi WNW 27.6 mph 40.3 mph N/A   Overcast
5:53 PM 48.9 °F - 37.0 °F 64% 29.42 in 10.0 mi WNW 32.2 mph 41.4 mph N/A   Overcast
6:12 PM 48.2 °F - 37.4 °F 66% 29.43 in 10.0 mi WNW 26.5 mph 35.7 mph N/A   Overcast
6:53 PM 48.9 °F - 36.0 °F 61% 29.44 in 10.0 mi WNW 28.8 mph 40.3 mph N/A   Overcast
7:53 PM 48.0 °F - 34.0 °F 58% 29.46 in 10.0 mi NW 28.8 mph 36.8 mph N/A   Mostly Cloudy
8:53 PM 48.0 °F - 33.1 °F 56% 29.47 in 10.0 mi NW 27.6 mph 43.7 mph N/A   Overcast
9:53 PM 46.9 °F - 32.0 °F 56% 29.46 in 10.0 mi WNW 24.2 mph 35.7 mph N/A   Overcast
10:53 PM 46.0 °F 37.2 °F 33.1 °F 61% 29.44 in 10.0 mi WNW 26.5 mph 40.3 mph 0.00 in   Overcast
11:53 PM 44.1 °F 35.0 °F 36.0 °F 73% 29.43 in 10.0 mi West 24.2 mph 34.5 mph 0.00 in Rain Light Rain